contact:dominique.lefevre@mio.osupytheas.fr, maurice.libes@osupytheas.fr, didier.mallarino@osupytheas.fr
Project:EMSO http://www.emso-fr.org/EMSO-France
Depth: 2436.0 m
Title:EMSO Ligure Ouest : Data MII capteur AQUADOPP
Date,Latitude,Longitude,X_East,Y_North,Z_Up,Amplitude_X,Amplitude_Y,Amplitude_Z,Batterie,SoundSpeed,Heading,Pitch,Roll,Pressure,TIS,Speed,Direction
, degrees North, degrees East, m.s-1, m.s-1,m.s-1, 1, 1, 1, Volt, m.s-1, degree, degree, degree, dbar, degree_C, m.s-1, degree
2020-03-09T00:04:03,42.805,6.029,-0.029,0.029,-0.046,105.0,114.0,103.0,13.3,1505.3,327.9,-0.7,1.8,2470.19,13.31,0.041,315.0
2020-03-09T00:07:03,42.805,6.029,-0.041,0.051,-0.065,105.0,113.0,101.0,13.4,1505.3,326.4,-0.7,1.8,2470.178,13.32,0.065,321.2
2020-03-09T00:10:03,42.805,6.029,-0.008,0.031,-0.017,105.0,111.0,102.0,13.3,1505.3,323.5,-0.7,1.8,2470.223,13.32,0.032,345.5
2020-03-09T00:13:03,42.805,6.029,-0.024,0.029,-0.017,106.0,114.0,102.0,13.4,1505.3,327.6,-0.7,1.8,2470.177,13.33,0.037,320.4
2020-03-09T00:16:03,42.805,6.029,-0.02,0.032,-0.033,104.0,112.0,102.0,13.3,1505.3,326.2,-0.7,1.8,2470.178,13.33,0.037,328.0
2020-03-09T00:19:03,42.805,6.029,-0.034,0.021,-0.043,107.0,113.0,102.0,13.3,1505.3,324.0,-0.7,1.8,2470.145,13.33,0.039,301.7
2020-03-09T00:22:03,42.805,6.029,-0.025,0.036,-0.033,104.0,115.0,102.0,13.4,1505.3,326.5,-0.7,1.8,2470.152,13.33,0.043,325.2
2020-03-09T00:25:03,42.805,6.029,-0.035,0.044,-0.056,103.0,113.0,102.0,13.4,1505.3,324.9,-0.7,1.8,2470.152,13.33,0.056,321.5
2020-03-09T00:28:03,42.805,6.029,-0.006,0.046,-0.077,106.0,113.0,101.0,13.4,1505.3,323.6,-0.7,1.8,2470.153,13.33,0.046,352.6
2020-03-09T00:31:03,42.805,6.029,-0.009,0.049,-0.05,105.0,112.0,101.0,13.4,1505.3,327.8,-0.7,1.8,2470.138,13.33,0.049,349.6
2020-03-09T00:34:03,42.805,6.029,-0.013,0.033,-0.009,104.0,112.0,103.0,13.4,1505.3,325.5,-0.7,1.8,2470.165,13.33,0.035,338.5
2020-03-09T00:37:03,42.805,6.029,-0.011,0.038,-0.047,103.0,112.0,103.0,13.3,1505.3,325.9,-0.7,1.8,2470.117,13.33,0.039,343.9
2020-03-09T00:40:03,42.805,6.029,-0.052,0.047,-0.03,105.0,113.0,102.0,13.4,1505.3,325.9,-0.7,1.8,2470.142,13.33,0.07,312.1
2020-03-09T00:43:03,42.805,6.029,-0.028,0.013,-0.054,107.0,116.0,102.0,13.4,1505.3,327.2,-0.7,1.8,2470.152,13.33,0.03,294.9
2020-03-09T00:46:03,42.805,6.029,-0.037,0.056,-0.043,105.0,114.0,103.0,13.4,1505.3,326.0,-0.7,1.9,2470.169,13.33,0.067,326.5
2020-03-09T00:49:03,42.805,6.029,-0.044,0.039,-0.016,105.0,114.0,103.0,13.4,1505.3,326.8,-0.7,1.8,2470.115,13.33,0.058,311.6
2020-03-09T00:52:03,42.805,6.029,-0.007,0.022,-0.01,104.0,115.0,102.0,13.4,1505.3,326.2,-0.7,1.8,2470.134,13.33,0.023,342.4
2020-03-09T00:55:03,42.805,6.029,-0.009,0.051,-0.025,105.0,113.0,103.0,13.4,1505.3,326.6,-0.7,1.8,2470.133,13.33,0.051,350.0
2020-03-09T00:58:03,42.805,6.029,-0.007,0.035,-0.025,106.0,114.0,103.0,13.4,1505.3,326.6,-0.7,1.8,2470.103,13.33,0.035,348.7
2020-03-09T01:04:03,42.805,6.029,-0.007,0.028,-0.031,107.0,116.0,105.0,13.4,1505.3,325.5,-0.7,1.8,2470.161,13.31,0.028,346.0
2020-03-09T01:07:03,42.805,6.029,-0.01,0.024,-0.017,105.0,114.0,102.0,13.3,1505.3,325.8,-0.7,1.8,2470.161,13.32,0.026,337.4
2020-03-09T01:10:03,42.805,6.029,-0.019,0.034,-0.003,105.0,114.0,102.0,13.4,1505.3,323.0,-0.7,1.9,2470.154,13.32,0.038,330.8
2020-03-09T01:13:03,42.805,6.029,-0.018,0.042,-0.035,106.0,111.0,102.0,13.4,1505.3,326.9,-0.7,1.8,2470.126,13.32,0.045,336.8
2020-03-09T01:16:03,42.805,6.029,0.014,0.034,-0.016,105.0,112.0,102.0,13.4,1505.3,327.4,-0.7,1.8,2470.128,13.33,0.036,22.4
2020-03-09T01:19:03,42.805,6.029,-0.001,0.031,0.005,106.0,114.0,103.0,13.4,1505.3,324.5,-0.7,1.9,2470.141,13.33,0.031,358.2
2020-03-09T01:22:03,42.805,6.029,-0.019,0.018,-0.048,106.0,114.0,102.0,13.4,1505.3,323.4,-0.7,1.8,2470.122,13.33,0.026,313.5
2020-03-09T01:25:03,42.805,6.029,-0.001,0.052,-0.029,107.0,112.0,103.0,13.3,1505.3,327.2,-0.7,1.8,2470.129,13.33,0.052,358.9
2020-03-09T01:28:03,42.805,6.029,-0.029,0.036,-0.038,106.0,115.0,101.0,13.4,1505.3,325.4,-0.7,1.8,2470.157,13.33,0.046,321.1
2020-03-09T01:31:03,42.805,6.029,-0.009,0.038,-0.023,105.0,114.0,103.0,13.4,1505.3,328.7,-0.7,1.8,2470.144,13.33,0.039,346.7
2020-03-09T01:34:03,42.805,6.029,-0.031,0.025,-0.043,105.0,113.0,103.0,13.4,1505.3,322.8,-0.7,1.8,2470.151,13.33,0.039,308.9
2020-03-09T01:37:03,42.805,6.029,-0.027,0.029,-0.052,105.0,113.0,102.0,13.4,1505.3,325.0,-0.7,1.8,2470.122,13.33,0.039,317.0
2020-03-09T01:40:03,42.805,6.029,-0.027,0.058,-0.026,105.0,112.0,103.0,13.4,1505.3,323.1,-0.7,1.8,2470.131,13.33,0.063,335.0
2020-03-09T01:43:03,42.805,6.029,-0.001,0.041,-0.038,105.0,114.0,101.0,13.4,1505.3,326.8,-0.7,1.9,2470.131,13.33,0.041,358.6
2020-03-09T01:46:03,42.805,6.029,-0.024,0.035,-0.045,104.0,113.0,102.0,13.4,1505.3,327.4,-0.7,1.8,2470.149,13.33,0.042,325.6
2020-03-09T01:49:03,42.805,6.029,-0.022,0.018,-0.053,104.0,113.0,102.0,13.4,1505.3,324.5,-0.7,1.9,2470.125,13.33,0.028,309.3
2020-03-09T01:52:03,42.805,6.029,-0.023,0.033,-0.032,105.0,113.0,101.0,13.3,1505.3,323.4,-0.7,1.8,2470.208,13.33,0.04,325.1
2020-03-09T01:55:03,42.805,6.029,-0.012,0.035,-0.021,104.0,114.0,101.0,13.4,1505.3,328.0,-0.7,1.8,2470.146,13.33,0.037,341.1
2020-03-09T01:58:03,42.805,6.029,-0.001,0.007,-0.029,104.0,113.0,102.0,13.4,1505.3,327.0,-0.7,1.8,2470.149,13.33,0.007,351.9
2020-03-09T02:04:03,42.805,6.029,0.016,0.035,-0.016,104.0,113.0,101.0,13.4,1505.3,327.8,-0.8,1.8,2470.16,13.31,0.038,24.6
2020-03-09T02:07:03,42.805,6.029,-0.012,0.057,-0.046,104.0,112.0,102.0,13.4,1505.3,325.4,-0.7,1.9,2470.142,13.32,0.058,348.1
2020-03-09T02:10:03,42.805,6.029,0.013,0.035,-0.04,104.0,112.0,104.0,13.4,1505.3,324.6,-0.7,1.8,2470.179,13.32,0.037,20.4
2020-03-09T02:13:03,42.805,6.029,-0.01,0.035,-0.005,102.0,113.0,102.0,13.4,1505.3,326.1,-0.7,1.8,2470.171,13.33,0.036,344.1
2020-03-09T02:16:03,42.805,6.029,-0.007,0.049,-0.057,103.0,112.0,102.0,13.4,1505.3,324.3,-0.7,1.8,2470.15,13.33,0.049,351.9
2020-03-09T02:19:03,42.805,6.029,-0.004,0.04,-0.008,105.0,112.0,101.0,13.4,1505.3,327.6,-0.7,1.8,2470.186,13.33,0.04,354.3
2020-03-09T02:22:03,42.805,6.029,-0.005,0.06,-0.009,104.0,112.0,101.0,13.4,1505.3,327.8,-0.7,1.8,2470.166,13.33,0.06,355.2
2020-03-09T02:28:03,42.805,6.029,-0.006,0.056,-0.038,105.0,112.0,101.0,13.4,1505.3,325.3,-0.8,1.8,2470.217,13.31,0.056,353.9
2020-03-09T02:31:03,42.805,6.029,-0.022,0.043,-0.032,103.0,112.0,102.0,13.3,1505.3,323.0,-0.7,1.9,2470.186,13.32,0.048,332.9
2020-03-09T02:34:03,42.805,6.029,-0.004,0.037,0.013,105.0,113.0,101.0,13.4,1505.3,324.3,-0.7,1.8,2470.205,13.32,0.037,353.8
2020-03-09T02:37:03,42.805,6.029,-0.005,0.041,-0.01,104.0,112.0,101.0,13.4,1505.3,327.5,-0.7,1.8,2470.167,13.32,0.041,353.0
2020-03-09T02:40:03,42.805,6.029,0.003,0.041,-0.013,104.0,112.0,101.0,13.4,1505.3,328.5,-0.7,1.9,2470.179,13.33,0.041,4.2
2020-03-09T02:43:03,42.805,6.029,-0.01,0.044,-0.041,102.0,113.0,102.0,13.3,1505.3,324.6,-0.7,1.8,2470.19,13.33,0.045,347.2
2020-03-09T02:46:03,42.805,6.029,0.005,0.045,-0.023,103.0,111.0,101.0,13.3,1505.3,324.5,-0.7,1.8,2470.18,13.33,0.045,6.3
2020-03-09T02:49:03,42.805,6.029,-0.014,0.021,-0.065,104.0,112.0,100.0,13.4,1505.3,323.4,-0.7,1.8,2470.186,13.33,0.025,326.3
2020-03-09T02:52:03,42.805,6.029,0.002,0.051,-0.025,104.0,111.0,101.0,13.3,1505.3,325.7,-0.7,1.9,2470.158,13.33,0.051,2.2
2020-03-09T02:55:03,42.805,6.029,-0.011,0.027,-0.032,104.0,113.0,101.0,13.3,1505.3,328.0,-0.7,1.9,2470.216,13.33,0.029,337.8
2020-03-09T02:58:03,42.805,6.029,-0.009,0.033,-0.052,103.0,113.0,102.0,13.4,1505.3,325.0,-0.7,1.8,2470.189,13.33,0.034,344.7
2020-03-09T03:04:03,42.805,6.029,-0.023,0.05,-0.009,104.0,112.0,102.0,13.4,1505.3,325.0,-0.8,1.9,2470.229,13.31,0.055,335.3
2020-03-09T03:07:03,42.805,6.029,0.004,0.041,-0.032,104.0,114.0,102.0,13.3,1505.3,323.1,-0.7,1.8,2470.192,13.32,0.041,5.6
2020-03-09T03:10:03,42.805,6.029,-0.002,0.043,0.001,104.0,112.0,102.0,13.4,1505.3,328.2,-0.7,1.9,2470.213,13.32,0.043,357.3
2020-03-09T03:13:03,42.805,6.029,-0.014,0.007,-0.017,103.0,113.0,102.0,13.3,1505.3,324.3,-0.7,1.8,2470.218,13.33,0.015,296.6
2020-03-09T03:16:03,42.805,6.029,0.001,0.061,-0.032,104.0,114.0,102.0,13.3,1505.3,326.7,-0.7,1.8,2470.21,13.33,0.061,0.9
2020-03-09T03:19:03,42.805,6.029,0.0,0.047,-0.036,103.0,113.0,101.0,13.4,1505.3,325.9,-0.7,1.8,2470.276,13.33,0.047,0.0
2020-03-09T03:22:03,42.805,6.029,0.014,0.038,-0.034,104.0,112.0,102.0,13.4,1505.3,324.7,-0.7,1.8,2470.212,13.33,0.04,20.2
2020-03-09T03:25:03,42.805,6.029,0.021,0.035,-0.021,105.0,113.0,102.0,13.4,1505.3,324.5,-0.7,1.9,2470.273,13.33,0.04,31.0
2020-03-09T03:28:03,42.805,6.029,-0.01,0.018,-0.066,105.0,114.0,101.0,13.4,1505.3,324.7,-0.7,1.8,2470.229,13.33,0.02,330.9
2020-03-09T03:31:03,42.805,6.029,0.001,0.068,-0.003,104.0,113.0,102.0,13.3,1505.3,328.3,-0.7,1.8,2470.205,13.33,0.068,0.8
2020-03-09T03:34:03,42.805,6.029,-0.03,0.023,-0.039,106.0,113.0,100.0,13.4,1505.3,325.2,-0.7,1.9,2470.218,13.33,0.037,307.5
2020-03-09T03:37:03,42.805,6.029,0.008,0.04,-0.025,104.0,113.0,102.0,13.4,1505.3,326.5,-0.7,1.9,2470.221,13.33,0.04,11.3
2020-03-09T03:40:03,42.805,6.029,0.001,0.038,-0.024,104.0,114.0,101.0,13.3,1505.3,326.6,-0.7,1.9,2470.239,13.33,0.038,1.5
2020-03-09T03:43:03,42.805,6.029,-0.004,0.048,-0.014,104.0,115.0,101.0,13.4,1505.3,323.3,-0.7,1.9,2470.219,13.33,0.048,355.2
2020-03-09T03:46:03,42.805,6.029,0.01,0.036,0.005,104.0,115.0,101.0,13.3,1505.3,327.2,-0.7,1.9,2470.238,13.33,0.037,15.5
2020-03-09T03:49:03,42.805,6.029,0.003,0.064,0.0,105.0,116.0,103.0,13.4,1505.3,327.2,-0.7,1.8,2470.254,13.33,0.064,2.7
2020-03-09T03:52:03,42.805,6.029,0.002,0.041,-0.025,104.0,116.0,100.0,13.3,1505.3,325.2,-0.7,1.8,2470.254,13.33,0.041,2.8
2020-03-09T03:55:03,42.805,6.029,-0.025,0.063,-0.013,103.0,115.0,101.0,13.4,1505.3,326.0,-0.7,1.8,2470.268,13.33,0.067,338.4
2020-03-09T03:58:03,42.805,6.029,-0.01,0.052,-0.037,104.0,113.0,101.0,13.4,1505.3,326.4,-0.8,1.8,2470.258,13.33,0.052,349.1
2020-03-09T04:04:03,42.805,6.029,-0.006,0.04,-0.046,104.0,116.0,101.0,13.4,1505.3,325.8,-0.7,1.8,2470.312,13.31,0.04,351.5
2020-03-09T04:07:03,42.805,6.029,0.009,0.056,-0.008,104.0,117.0,100.0,13.3,1505.3,326.2,-0.7,1.8,2470.301,13.32,0.056,9.1
2020-03-09T04:10:03,42.805,6.029,0.01,0.037,-0.011,103.0,115.0,100.0,13.3,1505.3,326.2,-0.7,1.8,2470.299,13.32,0.038,15.1
2020-03-09T04:13:03,42.805,6.029,-0.011,0.048,-0.068,105.0,115.0,100.0,13.3,1505.3,327.6,-0.7,1.8,2470.304,13.33,0.049,347.1
2020-03-09T04:16:03,42.805,6.029,-0.008,0.04,-0.057,104.0,116.0,101.0,13.4,1505.3,326.6,-0.7,1.9,2470.3,13.33,0.04,348.7
2020-03-09T04:19:03,42.805,6.029,-0.004,0.05,-0.05,105.0,114.0,102.0,13.3,1505.3,326.7,-0.7,1.8,2470.313,13.33,0.05,355.4
2020-03-09T04:22:03,42.805,6.029,0.008,0.043,-0.025,105.0,115.0,102.0,13.4,1505.3,326.6,-0.7,1.9,2470.293,13.33,0.043,10.5
2020-03-09T04:25:03,42.805,6.029,-0.01,0.044,-0.064,105.0,116.0,102.0,13.3,1505.3,328.3,-0.7,1.9,2470.307,13.33,0.045,347.2
2020-03-09T04:28:03,42.805,6.029,0.014,0.026,-0.052,105.0,116.0,102.0,13.3,1505.3,326.8,-0.7,1.8,2470.281,13.33,0.029,28.3
2020-03-09T04:31:03,42.805,6.029,0.003,0.03,-0.02,105.0,116.0,102.0,13.4,1505.3,328.2,-0.7,1.8,2470.337,13.33,0.03,5.7
2020-03-09T04:34:03,42.805,6.029,0.033,0.051,-0.003,105.0,113.0,103.0,13.3,1505.3,326.3,-0.7,1.8,2470.333,13.33,0.06,32.9
2020-03-09T04:37:03,42.805,6.029,0.006,0.038,-0.056,105.0,117.0,103.0,13.4,1505.3,328.5,-0.7,1.8,2470.371,13.33,0.038,9.0
2020-03-09T04:40:03,42.805,6.029,-0.017,0.044,-0.053,104.0,117.0,102.0,13.3,1505.3,323.1,-0.7,1.8,2470.307,13.33,0.047,338.9
2020-03-09T04:43:03,42.805,6.029,-0.022,0.045,-0.071,105.0,116.0,103.0,13.4,1505.3,326.9,-0.7,1.9,2470.313,13.33,0.05,333.9
2020-03-09T04:46:03,42.805,6.029,-0.007,0.027,-0.036,105.0,115.0,101.0,13.4,1505.3,324.5,-0.7,1.8,2470.29,13.33,0.027,345.5
2020-03-09T04:49:03,42.805,6.029,-0.005,0.029,-0.035,104.0,114.0,101.0,13.4,1505.3,327.7,-0.7,1.8,2470.33,13.33,0.029,350.2
2020-03-09T04:52:03,42.805,6.029,0.0,0.054,-0.036,105.0,116.0,102.0,13.3,1505.3,325.8,-0.7,1.8,2470.326,13.33,0.053,0.0
2020-03-09T04:55:03,42.805,6.029,-0.009,0.026,-0.055,105.0,114.0,103.0,13.4,1505.3,324.2,-0.7,1.8,2470.353,13.33,0.027,340.9
2020-03-09T04:58:03,42.805,6.029,0.033,0.038,-0.043,104.0,114.0,102.0,13.4,1505.3,324.6,-0.7,1.8,2470.313,13.33,0.05,41.0
2020-03-09T05:04:03,42.805,6.029,0.015,0.048,-0.009,105.0,113.0,102.0,13.3,1505.3,323.5,-0.7,1.8,2470.385,13.31,0.05,17.4
2020-03-09T05:07:03,42.805,6.029,-0.011,0.03,-0.044,104.0,115.0,102.0,13.3,1505.3,327.3,-0.7,1.8,2470.404,13.32,0.031,339.9
2020-03-09T05:10:03,42.805,6.029,0.015,0.031,-0.034,105.0,114.0,103.0,13.3,1505.3,324.5,-0.7,1.9,2470.362,13.32,0.034,25.8
2020-03-09T05:13:03,42.805,6.029,0.005,0.033,-0.044,104.0,113.0,101.0,13.3,1505.3,324.5,-0.7,1.8,2470.38,13.33,0.033,8.6
2020-03-09T05:16:03,42.805,6.029,0.0,0.009,-0.044,106.0,116.0,101.0,13.3,1505.3,324.5,-0.7,1.8,2470.367,13.33,0.009,0.0
2020-03-09T05:19:03,42.805,6.029,-0.006,0.039,-0.065,104.0,116.0,102.0,13.4,1505.3,327.6,-0.7,1.8,2470.411,13.33,0.039,351.3
2020-03-09T05:22:03,42.805,6.029,-0.002,0.036,-0.053,104.0,115.0,101.0,13.3,1505.3,324.1,-0.7,1.8,2470.351,13.33,0.036,356.8
2020-03-09T05:25:03,42.805,6.029,-0.008,0.036,-0.052,104.0,115.0,103.0,13.4,1505.3,327.1,-0.7,1.8,2470.402,13.33,0.036,347.5
2020-03-09T05:28:03,42.805,6.029,0.0,0.027,-0.054,105.0,115.0,102.0,13.4,1505.3,324.7,-0.7,1.8,2470.358,13.33,0.026,0.0
2020-03-09T05:31:03,42.805,6.029,0.011,0.04,-0.032,107.0,114.0,103.0,13.4,1505.3,323.2,-0.7,1.8,2470.386,13.33,0.041,15.4
2020-03-09T05:34:03,42.805,6.029,-0.003,0.046,-0.041,105.0,113.0,101.0,13.4,1505.3,325.5,-0.7,1.9,2470.34,13.33,0.046,356.3
2020-03-09T05:37:03,42.805,6.029,0.028,0.017,-0.034,106.0,113.0,103.0,13.4,1505.3,327.2,-0.7,1.8,2470.401,13.33,0.032,58.7
2020-03-09T05:40:03,42.805,6.029,-0.016,0.025,-0.034,105.0,115.0,102.0,13.4,1505.3,325.0,-0.7,1.9,2470.422,13.33,0.029,327.4
2020-03-09T05:43:03,42.805,6.029,-0.006,0.04,-0.038,104.0,115.0,101.0,13.3,1505.3,326.9,-0.7,1.8,2470.4,13.33,0.04,351.5
2020-03-09T05:46:03,42.805,6.029,-0.008,0.018,-0.041,105.0,115.0,101.0,13.4,1505.3,323.0,-0.7,1.8,2470.406,13.33,0.019,336.0
2020-03-09T05:49:03,42.805,6.029,0.013,0.02,-0.032,105.0,114.0,101.0,13.4,1505.3,327.0,-0.7,1.8,2470.415,13.33,0.023,33.0
2020-03-09T05:52:03,42.805,6.029,0.017,0.024,-0.047,104.0,114.0,101.0,13.4,1505.3,326.9,-0.7,1.9,2470.35,13.33,0.029,35.3
2020-03-09T05:55:03,42.805,6.029,0.016,0.025,-0.01,104.0,113.0,102.0,13.4,1505.3,324.6,-0.7,1.8,2470.409,13.33,0.029,32.6
2020-03-09T05:58:03,42.805,6.029,0.009,0.017,-0.057,104.0,113.0,101.0,13.4,1505.3,325.0,-0.7,1.8,2470.404,13.33,0.019,27.9
2020-03-09T06:04:03,42.805,6.029,-0.005,0.025,-0.037,104.0,113.0,102.0,13.4,1505.3,323.4,-0.7,1.8,2470.423,13.31,0.025,348.7
2020-03-09T06:10:03,42.805,6.029,-0.003,0.026,-0.022,105.0,113.0,101.0,13.4,1505.3,325.9,-0.7,1.8,2470.445,13.31,0.026,353.4
2020-03-09T06:13:03,42.805,6.029,0.021,0.032,-0.036,105.0,113.0,104.0,13.4,1505.3,324.1,-0.7,1.8,2470.418,13.31,0.038,33.3
2020-03-09T06:16:03,42.805,6.029,0.027,0.025,-0.014,104.0,113.0,101.0,13.4,1505.3,324.7,-0.7,1.8,2470.479,13.32,0.036,47.2
2020-03-09T06:19:03,42.805,6.029,-0.003,0.035,-0.032,104.0,114.0,101.0,13.4,1505.3,324.3,-0.7,1.8,2470.459,13.32,0.035,355.1
2020-03-09T06:22:03,42.805,6.029,0.012,0.027,-0.022,105.0,113.0,102.0,13.4,1505.3,326.6,-0.7,1.9,2470.421,13.33,0.029,24.0
2020-03-09T06:25:03,42.805,6.029,0.015,0.042,-0.017,104.0,113.0,102.0,13.3,1505.3,328.4,-0.7,1.8,2470.431,13.33,0.044,19.6
2020-03-09T06:28:03,42.805,6.029,0.013,0.023,-0.037,106.0,112.0,102.0,13.4,1505.3,324.2,-0.7,1.8,2470.419,13.33,0.026,29.5
2020-03-09T06:31:03,42.805,6.029,0.004,0.028,-0.024,105.0,113.0,102.0,13.4,1505.3,326.8,-0.7,1.8,2470.434,13.33,0.028,8.1
2020-03-09T06:34:03,42.805,6.029,0.003,0.039,-0.035,104.0,112.0,101.0,13.4,1505.3,325.4,-0.7,1.8,2470.428,13.33,0.039,4.4
2020-03-09T06:37:03,42.805,6.029,0.003,0.022,-0.046,104.0,111.0,103.0,13.4,1505.3,324.7,-0.7,1.8,2470.376,13.33,0.022,7.8
2020-03-09T06:40:03,42.805,6.029,0.02,0.046,-0.017,105.0,110.0,101.0,13.4,1505.3,325.4,-0.7,1.8,2470.422,13.33,0.05,23.5
2020-03-09T06:43:03,42.805,6.029,0.013,0.033,-0.061,104.0,112.0,102.0,13.4,1505.3,325.7,-0.7,1.8,2470.415,13.33,0.035,21.5
2020-03-09T06:46:03,42.805,6.029,0.019,0.025,-0.039,105.0,112.0,103.0,13.4,1505.3,326.8,-0.7,1.8,2470.453,13.33,0.031,37.2
2020-03-09T06:49:03,42.805,6.029,-0.005,0.035,-0.031,104.0,113.0,103.0,13.3,1505.3,326.4,-0.7,1.8,2470.429,13.33,0.035,351.9
2020-03-09T06:52:03,42.805,6.029,0.0,0.037,0.003,104.0,112.0,101.0,13.4,1505.3,322.9,-0.7,1.8,2470.409,13.33,0.037,0.0
2020-03-09T06:55:03,42.805,6.029,0.02,0.032,-0.016,104.0,112.0,101.0,13.4,1505.3,327.9,-0.7,1.8,2470.433,13.33,0.037,32.0
2020-03-09T06:58:03,42.805,6.029,0.027,0.007,-0.039,104.0,113.0,102.0,13.3,1505.3,325.2,-0.7,1.8,2470.424,13.33,0.027,75.5
2020-03-09T07:04:03,42.805,6.029,0.009,0.023,-0.043,107.0,112.0,101.0,13.4,1505.3,327.0,-0.8,1.8,2470.524,13.31,0.024,21.4
2020-03-09T07:07:03,42.805,6.029,0.003,0.028,-0.027,103.0,111.0,102.0,13.4,1505.3,323.5,-0.7,1.8,2470.454,13.31,0.028,6.1
2020-03-09T07:10:03,42.805,6.029,0.029,0.005,-0.034,104.0,112.0,103.0,13.4,1505.3,325.6,-0.7,1.8,2470.438,13.32,0.029,80.2
2020-03-09T07:13:03,42.805,6.029,0.028,0.01,-0.019,104.0,111.0,102.0,13.3,1505.3,328.4,-0.7,1.8,2470.435,13.32,0.029,70.4
2020-03-09T07:16:03,42.805,6.029,0.037,0.016,-0.025,104.0,111.0,103.0,13.3,1505.3,326.9,-0.7,1.9,2470.44,13.32,0.04,66.6
2020-03-09T07:19:03,42.805,6.029,0.012,0.013,-0.04,105.0,112.0,102.0,13.4,1505.3,328.6,-0.7,1.8,2470.443,13.33,0.017,42.7
2020-03-09T07:22:03,42.805,6.029,0.013,0.021,-0.043,105.0,112.0,101.0,13.4,1505.3,326.2,-0.7,1.8,2470.421,13.33,0.024,31.8
2020-03-09T07:25:03,42.805,6.029,0.024,0.014,-0.013,105.0,111.0,101.0,13.4,1505.3,327.5,-0.7,1.8,2470.445,13.33,0.027,59.7
2020-03-09T07:28:03,42.805,6.029,0.013,0.004,-0.007,103.0,111.0,103.0,13.3,1505.3,325.0,-0.7,1.8,2470.482,13.33,0.013,72.9
2020-03-09T07:31:03,42.805,6.029,0.006,0.037,-0.024,105.0,112.0,102.0,13.4,1505.3,323.5,-0.7,1.9,2470.407,13.33,0.037,9.2
2020-03-09T07:34:03,42.805,6.029,0.053,0.013,-0.013,106.0,112.0,101.0,13.4,1505.3,326.2,-0.7,1.8,2470.431,13.33,0.054,76.2
2020-03-09T07:37:03,42.805,6.029,0.03,-0.01,-0.026,104.0,111.0,100.0,13.4,1505.3,328.0,-0.7,1.8,2470.415,13.33,0.031,108.4
2020-03-09T07:40:03,42.805,6.029,0.043,0.032,-0.031,104.0,110.0,102.0,13.4,1505.3,323.9,-0.7,1.9,2470.424,13.33,0.053,53.3
2020-03-09T07:43:03,42.805,6.029,0.016,0.019,-0.029,104.0,112.0,101.0,13.4,1505.3,324.2,-0.7,1.8,2470.449,13.33,0.024,40.1
2020-03-09T07:46:03,42.805,6.029,0.008,-0.002,-0.016,105.0,110.0,101.0,13.4,1505.3,325.5,-0.7,1.8,2470.428,13.33,0.008,104.0
2020-03-09T07:49:03,42.805,6.029,0.007,0.016,-0.032,104.0,112.0,102.0,13.3,1505.3,326.0,-0.7,1.8,2470.425,13.33,0.017,23.6
2020-03-09T07:52:03,42.805,6.029,0.015,0.02,-0.029,104.0,111.0,101.0,13.4,1505.3,323.4,-0.7,1.8,2470.416,13.33,0.025,36.9
2020-03-09T07:55:03,42.805,6.029,0.027,0.003,-0.027,105.0,111.0,101.0,13.4,1505.3,327.1,-0.7,1.8,2470.429,13.33,0.027,83.7
2020-03-09T07:58:03,42.805,6.029,0.02,0.022,-0.034,105.0,110.0,101.0,13.3,1505.3,328.2,-0.7,1.9,2470.422,13.33,0.029,42.3
2020-03-09T08:04:03,42.805,6.029,-0.002,0.003,-0.028,105.0,113.0,102.0,13.4,1505.3,326.7,-0.7,1.8,2470.419,13.31,0.003,326.3
2020-03-09T08:07:03,42.805,6.029,-0.005,0.013,-0.038,104.0,110.0,102.0,13.4,1505.3,325.9,-0.7,1.9,2470.46,13.31,0.013,339.0
2020-03-09T08:10:03,42.805,6.029,0.011,0.014,-0.05,105.0,111.0,100.0,13.4,1505.3,327.3,-0.7,1.8,2470.456,13.32,0.017,38.2
2020-03-09T08:13:03,42.805,6.029,0.023,0.008,-0.039,105.0,111.0,101.0,13.3,1505.3,328.8,-0.7,1.8,2470.421,13.32,0.024,70.8
2020-03-09T08:16:03,42.805,6.029,0.015,0.011,-0.045,104.0,110.0,102.0,13.4,1505.3,328.2,-0.7,1.8,2470.469,13.33,0.018,53.7
2020-03-09T08:19:03,42.805,6.029,0.002,0.003,-0.067,105.0,109.0,102.0,13.4,1505.3,327.4,-0.7,1.8,2470.367,13.33,0.003,33.7
2020-03-09T08:22:03,42.805,6.029,0.0,0.02,-0.038,105.0,111.0,102.0,13.3,1505.3,324.5,-0.7,1.8,2470.438,13.33,0.02,0.0
2020-03-09T08:25:03,42.805,6.029,0.034,0.02,-0.014,104.0,109.0,101.0,13.4,1505.3,325.1,-0.7,1.8,2470.433,13.33,0.039,59.5
2020-03-09T08:28:03,42.805,6.029,0.023,0.012,-0.009,105.0,109.0,102.0,13.4,1505.3,326.7,-0.7,1.9,2470.396,13.33,0.025,62.4
2020-03-09T08:31:03,42.805,6.029,0.006,0.0,-0.055,105.0,109.0,103.0,13.4,1505.3,323.5,-0.7,1.8,2470.383,13.33,0.006,90.0
2020-03-09T08:34:03,42.805,6.029,0.026,-0.001,-0.043,104.0,109.0,101.0,13.3,1505.3,324.6,-0.7,1.8,2470.452,13.33,0.026,92.2
2020-03-09T08:37:03,42.805,6.029,0.0,0.002,-0.043,104.0,110.0,103.0,13.4,1505.3,328.2,-0.7,1.8,2470.356,13.33,0.002,0.0
2020-03-09T08:40:03,42.805,6.029,-0.014,0.018,-0.024,104.0,109.0,102.0,13.4,1505.3,325.8,-0.7,1.9,2470.405,13.33,0.022,322.1
2020-03-09T08:43:03,42.805,6.029,0.001,0.032,-0.041,104.0,109.0,102.0,13.4,1505.3,327.2,-0.7,1.9,2470.407,13.33,0.032,1.8
2020-03-09T08:46:03,42.805,6.029,0.023,0.017,-0.01,105.0,110.0,102.0,13.3,1505.3,326.7,-0.7,1.8,2470.386,13.33,0.028,53.5
2020-03-09T08:49:03,42.805,6.029,0.024,-0.004,-0.032,105.0,110.0,103.0,13.4,1505.3,324.5,-0.7,1.8,2470.384,13.33,0.024,99.5
2020-03-09T08:52:03,42.805,6.029,0.021,0.028,-0.006,106.0,107.0,103.0,13.3,1505.3,323.5,-0.7,1.8,2470.386,13.33,0.035,36.9
2020-03-09T08:55:03,42.805,6.029,0.002,0.02,-0.009,104.0,109.0,102.0,13.4,1505.3,327.6,-0.7,1.8,2470.38,13.33,0.02,5.7
2020-03-09T08:58:03,42.805,6.029,0.026,0.006,-0.007,104.0,108.0,103.0,13.4,1505.3,326.5,-0.7,1.8,2470.378,13.33,0.026,77.0
2020-03-09T09:04:03,42.805,6.029,0.003,0.008,-0.018,105.0,107.0,102.0,13.4,1505.3,325.2,-0.8,1.8,2470.415,13.31,0.008,20.6
2020-03-09T09:07:03,42.805,6.029,0.013,0.008,0.0,104.0,109.0,101.0,13.4,1505.3,324.5,-0.7,1.8,2470.415,13.32,0.015,58.4
2020-03-09T09:10:03,42.805,6.029,-0.017,0.015,-0.041,106.0,109.0,101.0,13.4,1505.3,323.3,-0.7,1.9,2470.387,13.33,0.022,311.4
2020-03-09T09:13:03,42.805,6.029,0.022,0.008,-0.019,105.0,111.0,101.0,13.3,1505.3,327.8,-0.7,1.8,2470.414,13.33,0.023,70.0
2020-03-09T09:16:03,42.805,6.029,0.01,0.024,0.002,105.0,114.0,101.0,13.4,1505.3,325.9,-0.7,1.9,2470.371,13.33,0.026,22.6
2020-03-09T09:19:03,42.805,6.029,0.002,0.008,-0.017,105.0,108.0,102.0,13.4,1505.3,326.6,-0.7,1.8,2470.377,13.33,0.008,14.0
2020-03-09T09:22:03,42.805,6.029,0.009,0.034,-0.018,105.0,108.0,101.0,13.3,1505.3,323.5,-0.7,1.8,2470.387,13.33,0.035,14.8
2020-03-09T09:25:03,42.805,6.029,-0.028,0.011,-0.063,104.0,110.0,103.0,13.4,1505.3,328.2,-0.7,1.8,2470.374,13.33,0.03,291.4
2020-03-09T09:28:03,42.805,6.029,0.01,0.003,-0.068,105.0,109.0,101.0,13.3,1505.4,324.0,-0.7,1.8,2470.382,13.34,0.01,73.3
2020-03-09T09:31:03,42.805,6.029,0.004,0.014,-0.031,102.0,108.0,102.0,13.4,1505.4,323.3,-0.7,1.8,2470.31,13.34,0.014,15.9
2020-03-09T09:34:03,42.805,6.029,0.008,0.018,-0.066,105.0,108.0,100.0,13.3,1505.4,328.1,-0.7,1.8,2470.337,13.34,0.019,24.0
2020-03-09T09:37:03,42.805,6.029,-0.023,0.033,-0.082,105.0,108.0,102.0,13.3,1505.4,325.2,-0.7,1.8,2470.364,13.34,0.04,325.1
2020-03-09T09:40:03,42.805,6.029,-0.023,-0.012,-0.022,104.0,109.0,100.0,13.4,1505.4,326.9,-0.7,1.8,2470.326,13.34,0.025,242.4
2020-03-09T09:43:03,42.805,6.029,0.042,0.017,-0.048,105.0,108.0,102.0,13.3,1505.4,324.6,-0.7,1.8,2470.389,13.34,0.045,68.0
2020-03-09T09:46:03,42.805,6.029,-0.001,0.016,-0.05,102.0,109.0,102.0,13.4,1505.4,323.2,-0.7,1.8,2470.341,13.34,0.016,356.4
2020-03-09T09:49:03,42.805,6.029,-0.002,0.008,-0.038,103.0,107.0,101.0,13.4,1505.4,323.7,-0.7,1.8,2470.391,13.34,0.008,346.0
2020-03-09T09:52:03,42.805,6.029,-0.009,0.011,-0.032,106.0,109.0,101.0,13.3,1505.4,328.4,-0.7,1.8,2470.361,13.34,0.014,320.7
2020-03-09T09:55:03,42.805,6.029,-0.007,-0.004,-0.086,104.0,107.0,102.0,13.4,1505.4,326.0,-0.7,1.8,2470.353,13.34,0.008,240.3
2020-03-09T09:58:03,42.805,6.029,0.01,-0.016,-0.057,105.0,109.0,100.0,13.4,1505.4,326.7,-0.7,1.8,2470.337,13.34,0.018,148.0
2020-03-09T10:04:03,42.805,6.029,0.006,0.004,-0.063,106.0,109.0,100.0,13.4,1505.3,326.7,-0.8,1.8,2470.385,13.32,0.007,56.3
2020-03-09T10:07:03,42.805,6.029,0.013,-0.005,-0.021,104.0,108.0,102.0,13.4,1505.3,323.3,-0.7,1.8,2470.373,13.32,0.013,111.0